This is the latest recevied weather packets stored in our database for station/object DL6DJ-15. If no packets are shown the sender has not sent any weather packets the latest 10 day(s).
| Time | Temp. | Humidity | Pressure | Rain* | Wind** | Luminosity | Snow |
|---|---|---|---|---|---|---|---|
| 1788445843 | 24.44° C | 41% | 1022.6 hPa | - | - | - | - |
| 1788445542 | 24.44° C | 41% | 1022.6 hPa | - | - | - | - |
| 1788445242 | 23.89° C | 43% | 1022.5 hPa | - | - | - | - |
| 1788444941 | 23.89° C | 42% | 1022.5 hPa | - | - | - | - |
| 1788444641 | 23.89° C | 41% | 1022.6 hPa | - | - | - | - |
| 1788444340 | 23.89° C | 42% | 1022.7 hPa | - | - | - | - |
| 1788444040 | 23.89° C | 42% | 1022.8 hPa | - | - | - | - |
| 1788443742 | 24.44° C | 41% | 1022.8 hPa | - | - | - | - |
| 1788443439 | 24.44° C | 42% | 1022.8 hPa | - | - | - | - |
| 1788443139 | 24.44° C | 41% | 1022.9 hPa | - | - | - | - |
| 1788442838 | 25° C | 40% | 1022.7 hPa | - | - | - | - |
| 1788442538 | 24.44° C | 40% | 1022.8 hPa | - | - | - | - |
| 1788442238 | 24.44° C | 41% | 1022.9 hPa | - | - | - | - |
| 1788441937 | 24.44° C | 42% | 1022.8 hPa | - | - | - | - |
| 1788441637 | 24.44° C | 40% | 1022.9 hPa | - | - | - | - |
| 1788441337 | 24.44° C | 41% | 1022.9 hPa | - | - | - | - |
| 1788441056 | 24.44° C | 41% | 1022.8 hPa | - | - | - | - |
| 1788440736 | 23.89° C | 42% | 1022.9 hPa | - | - | - | - |
| 1788440435 | 24.44° C | 40% | 1022.9 hPa | - | - | - | - |
| 1788440135 | 25° C | 40% | 1023 hPa | - | - | - | - |
| 1788439834 | 25.56° C | 38% | 1022.9 hPa | - | - | - | - |
| 1788439534 | 25° C | 39% | 1022.9 hPa | - | - | - | - |
| 1788439233 | 25.56° C | 37% | 1023.1 hPa | - | - | - | - |
| 1788438933 | 26.11° C | 36% | 1023.1 hPa | - | - | - | - |
| 1788438632 | 26.11° C | 40% | 1023 hPa | - | - | - | - |
* Rain since midnight (hover to see other rain measurements)
** Current wind speed in m/s (hover to see current wind gust speed)